Starlink 30771

operational
NORAD ID: 58169 Int'l Des: 2023-166 Owner: SPXS Country: US Constellation: starlink
LEOCIRCULAR

Starlink 30771について

説明を読み込み中...

リアルタイム位置

3D地球を読み込み中...

次回通過

高度履歴

Altitude vs Time

uPlot chart will show altitude changes over time

軌道要素

1 58169U 23166V 25257.48983410 .00000089 00000-0 15145-4 0 9992
2 58169 53.1611 317.9505 0001087 76.9856 283.1266 15.30182843106207
Epoch: Sep 14, 2025 • Age: 49 hours

現在のステータス

高度 481.0 km
速度 7.63 km/s
衛星直下点 53.02°N, 156.34°W
打ち上げ日 Oct 29, 2023
運用期間 1.8 years
タイプ internet

技術仕様

分類 Payload
質量 730.00 kg
乾燥質量 700.00 kg
総質量 730.00 kg
長さ 0.30 m
直径 4.10 m
スパン 29.00 m
形状 Box + pan
製造者 SPXS
バスタイプ Starlink V2M
フェーズステータス In Orbit
所有者/国 SPXS/US

大規模コンステレーション

Loading constellations...